[[{"header":{"parameterUnit":"m.s-1","parameterCategory":1,"la1":30.2992,"la2":30.254,"lo1":-89.0895,"lo2":-89.0443,"dy":0.0025,"dx":0.0025,"nx":19,"ny":19,"refTime":"2026-04-29T03:00:00:Z","depth":0,"parameterNumber":2,"parameterNumberName":"U-component_of_WINDS"},"data":[0,0,0,-2.2437,-2.2437,-2.2416,-2.2416,-2.2392,-2.2392,0,0,0,0,0,0,0,0,0,0,0,-2.2446,-2.2446,-2.2437,-2.2437,-2.2416,-2.2416,-2.2392,-2.2392,0,0,0,0,0,0,0,0,0,0,0,-2.2446,-2.2446,-2.2446,-2.2437,-2.2416,-2.2416,-2.2392,-2.2407,0,0,0,0,0,0,0,0,0,0,-2.2427,-2.2437,-2.2446,-2.2446,-2.2437,-2.2416,-2.2416,-2.2408,-2.2406,-2.2403,0,-2.2401,0,-2.2396,-2.2391,-2.2391,0,0,0,-2.2435,-2.2438,-2.243,-2.2446,-2.2437,-2.2416,-2.2425,-2.2407,-2.2405,-2.2401,-2.2401,-2.24,-2.2396,-2.2391,-2.239,-2.2379,-2.2379,0,0,-2.2437,-2.2443,-2.2432,-2.2429,-2.2433,-2.2426,-2.2424,-2.2406,-2.2406,-2.2401,-2.2399,-2.2396,-2.239,-2.239,-2.2379,-2.2379,0,0,0,-2.2441,-2.2444,-2.2437,-2.243,-2.2426,-2.2425,-2.2424,-2.2406,-2.2404,-2.2399,-2.2395,-2.239,-2.239,-2.2379,-2.2379,-2.2386,0,0,0,-2.2442,-2.2446,-2.2437,-2.2441,-2.2427,-2.2416,-2.2425,-2.2405,-2.2403,-2.2395,-2.239,-2.239,-2.2379,-2.2379,-2.2386,-2.2389,0,0,0,-2.2446,-2.2447,-2.2445,-2.2441,-2.2433,-2.2416,-2.2412,-2.2404,-2.24,-2.2391,-2.239,-2.2379,-2.2379,-2.2386,-2.2388,-2.2387,0,0,0,-2.2453,-2.2451,-2.2445,-2.2441,-2.2433,-2.2421,-2.2412,-2.2403,-2.2396,-2.239,-2.2379,-2.2379,-2.2386,-2.2388,-2.2387,-2.2388,-2.2389,0,0,-2.2454,-2.2451,-2.2449,-2.2442,-2.2433,-2.2424,-2.2415,-2.2403,-2.2396,-2.2385,-2.2385,-2.2386,-2.2388,-2.2387,-2.2392,-2.2393,0,0,0,-2.2451,-2.2449,-2.2445,-2.2439,-2.2429,-2.242,-2.2408,-2.2403,-2.2394,-2.2392,-2.2386,-2.2387,-2.2386,-2.2386,-2.2386,-2.2385,-2.238,-2.238,-2.238,-2.2461,-2.2453,-2.2448,-2.2437,-2.243,-2.2418,-2.2412,-2.2403,-2.2397,-2.2395,-2.2392,-2.2396,-2.2396,-2.2396,-2.2395,-2.2392,-2.2392,-2.2392,-2.2392,-2.2461,-2.2457,-2.2449,-2.2441,-2.2432,-2.2425,-2.2413,-2.2409,-2.2401,-2.2398,-2.2397,-2.2393,-2.2398,-2.2396,-2.2392,-2.2392,-2.2392,-2.2392,-2.2392,-2.2467,-2.2463,-2.2458,-2.2447,-2.244,-2.2429,-2.2422,-2.2415,-2.2407,-2.2406,-2.2402,-2.2402,-2.2401,-2.2405,-2.2405,-2.2405,-2.2405,-2.2405,-2.2405,-2.2474,-2.2468,-2.2463,-2.2453,-2.2447,-2.2439,-2.2427,-2.2422,-2.2414,-2.2409,-2.2409,-2.2402,-2.24,-2.2399,-2.2405,-2.2405,-2.2405,-2.2405,-2.2405,-2.2477,-2.2475,-2.2468,-2.2463,-2.245,-2.2443,-2.2434,-2.2424,-2.2418,-2.2415,-2.2409,-2.2408,-2.2405,-2.2404,-2.2404,-2.2411,-2.2411,-2.2411,-2.2411,-2.2481,-2.2479,-2.247,-2.2462,-2.2453,-2.2444,-2.2436,-2.2427,-2.2417,-2.2413,-2.2411,-2.2409,-2.2409,-2.2406,-2.2405,-2.2405,-2.2412,-2.2412,-2.2412,-2.2483,-2.2479,-2.2474,-2.2464,-2.2453,-2.2445,-2.2437,-2.2428,-2.2417,-2.2412,-2.241,-2.2409,-2.2407,-2.2407,-2.2401,-2.2401,-2.2399,0,0]},{"header":{"parameterUnit":"m.s-1","parameterCategory":1,"la1":30.2992,"la2":30.254,"lo1":-89.0895,"lo2":-89.0443,"dy":0.0025,"dx":0.0025,"nx":19,"ny":19,"refTime":"2026-04-29T03:00:00:Z","depth":0,"parameterNumber":3,"parameterNumberName":"V-component_of_WINDS"},"data":[0,0,0,5.1713,5.1712,5.1676,5.1676,5.1647,5.1647,0,0,0,0,0,0,0,0,0,0,0,5.1735,5.1735,5.1713,5.1712,5.1676,5.1676,5.1647,5.1647,0,0,0,0,0,0,0,0,0,0,0,5.1735,5.1735,5.1736,5.1712,5.1676,5.1676,5.1647,5.1668,0,0,0,0,0,0,0,0,0,0,5.1699,5.1732,5.1735,5.1736,5.1712,5.1676,5.1676,5.1668,5.1666,5.1671,0,5.168,0,5.1663,5.1646,5.1646,0,0,0,5.1703,5.1734,5.1714,5.1736,5.1712,5.1676,5.169,5.1667,5.1665,5.1669,5.1679,5.1678,5.1663,5.1646,5.1646,5.1709,5.171,0,0,5.1705,5.1735,5.1716,5.1713,5.1721,5.1691,5.1689,5.1665,5.1678,5.1679,5.1677,5.1662,5.1646,5.1646,5.1709,5.171,0,0,0,5.1717,5.1737,5.1716,5.1715,5.1707,5.169,5.1687,5.1679,5.167,5.1676,5.1662,5.1646,5.1646,5.1708,5.1709,5.1776,0,0,0,5.1717,5.1743,5.1718,5.1736,5.1708,5.1693,5.1702,5.1672,5.1668,5.1662,5.1646,5.1646,5.1707,5.1708,5.1772,5.1803,0,0,0,5.1733,5.1745,5.1744,5.1737,5.1723,5.1693,5.1682,5.167,5.166,5.1646,5.1646,5.1706,5.1708,5.1769,5.1797,5.1829,0,0,0,5.1759,5.1803,5.1746,5.1789,5.1724,5.1735,5.1682,5.1688,5.1684,5.1646,5.1707,5.1709,5.1768,5.1794,5.1826,5.1862,5.188,0,0,5.1831,5.1812,5.1836,5.1784,5.1813,5.1738,5.1776,5.1743,5.1713,5.1712,5.1713,5.1774,5.1797,5.1829,5.1968,5.1983,0,0,0,5.1869,5.1886,5.1887,5.1886,5.1863,5.1846,5.1804,5.1791,5.179,5.1719,5.1792,5.1805,5.1823,5.1839,5.1851,5.1864,5.1717,5.1717,5.1717,5.2014,5.1975,5.2012,5.1969,5.1968,5.1925,5.1921,5.1897,5.1856,5.1874,5.1874,5.1964,5.1984,5.1993,5.2007,5.1889,5.1889,5.1889,5.189,5.2117,5.2136,5.2083,5.2099,5.2058,5.207,5.2031,5.2002,5.2007,5.196,5.1973,5.1927,5.201,5.202,5.1894,5.1893,5.1893,5.1892,5.1892,5.2209,5.2211,5.2197,5.2192,5.2192,5.2146,5.2155,5.2115,5.2078,5.2092,5.2088,5.2087,5.2081,5.2093,5.2093,5.2093,5.2093,5.2094,5.2094,5.231,5.2292,5.2304,5.2285,5.228,5.2268,5.2226,5.2219,5.2201,5.2172,5.2171,5.213,5.2025,5.2,5.2099,5.2098,5.2097,5.2097,5.2096,5.2431,5.2398,5.2418,5.2413,5.2387,5.239,5.234,5.233,5.2318,5.2324,5.228,5.2208,5.2186,5.2176,5.2155,5.2287,5.2287,5.2287,5.2287,5.2509,5.2494,5.2507,5.2501,5.2491,5.2449,5.2472,5.244,5.2401,5.2392,5.2367,5.2335,5.2327,5.2309,5.2296,5.2276,5.2437,5.2437,5.2437,5.2582,5.2564,5.2593,5.2556,5.2533,5.2514,5.2535,5.253,5.2479,5.2442,5.2384,5.2377,5.2326,5.2312,5.2274,5.2255,5.2218,0,0]}]]